URO1M EGHH-EHAM

Flight info

Callsign URO1M
Flight time 0h 49m
Altitude 37000
Route GWC DCT OCK UM185 KOBBI M197 REDFA
Aircraft A346/H-SDE2E3FGHIJ3J4J5M1RWXY/LB1D1

Departure

Time 2026-04-28 22:24
Airport Bournemouth Airport (EGHH)

Arrival

Time 2026-04-28 23:13
Airport Amsterdam Airport Schiphol (EHAM)
Time Latitude Longitude Altitude Speed Heading
2026-04-28 22:06 50.78607 -1.84236 54 ft 0 kts 255°
2026-04-28 22:16 50.78608 -1.84226 46 ft 4 kts 257°
2026-04-28 22:16 50.78613 -1.84185 49 ft 4 kts 258°
2026-04-28 22:16 50.78618 -1.84167 46 ft 2 kts 221°
2026-04-28 22:16 50.78636 -1.84147 46 ft 4 kts 198°
2026-04-28 22:17 50.78659 -1.84144 46 ft 4 kts 170°
2026-04-28 22:17 50.78684 -1.84154 46 ft 3 kts 165°
2026-04-28 22:17 50.78691 -1.84157 46 ft 0 kts 166°
2026-04-28 22:19 50.78675 -1.84151 46 ft 8 kts 166°
2026-04-28 22:20 50.78581 -1.84113 47 ft 17 kts 165°
2026-04-28 22:20 50.78454 -1.84060 47 ft 20 kts 165°
2026-04-28 22:20 50.78306 -1.83998 52 ft 23 kts 165°
2026-04-28 22:20 50.78154 -1.83936 47 ft 17 kts 166°
2026-04-28 22:21 50.78051 -1.84011 50 ft 20 kts 244°
2026-04-28 22:21 50.78004 -1.84238 51 ft 23 kts 255°
2026-04-28 22:21 50.77961 -1.84496 52 ft 25 kts 255°
2026-04-28 22:21 50.77916 -1.84773 54 ft 27 kts 256°
2026-04-28 22:22 50.77871 -1.85071 51 ft 29 kts 256°
2026-04-28 22:22 50.77819 -1.85385 54 ft 29 kts 255°
2026-04-28 22:22 50.77771 -1.85626 53 ft 17 kts 242°
2026-04-28 22:22 50.77725 -1.85745 49 ft 10 kts 292°
2026-04-28 22:23 50.77765 -1.85735 46 ft 7 kts 73°
2026-04-28 22:23 50.77778 -1.85658 50 ft 28 kts 75°
2026-04-28 22:23 50.77885 -1.84994 50 ft 95 kts 76°
2026-04-28 22:23 50.78107 -1.83684 50 ft 148 kts 75°
2026-04-28 22:24 50.78388 -1.81973 388 ft 167 kts 71°
2026-04-28 22:24 50.78681 -1.80197 1191 ft 162 kts 72°
2026-04-28 22:24 50.78934 -1.78525 2154 ft 151 kts 77°
2026-04-28 22:24 50.79091 -1.76818 2651 ft 165 kts 84°
2026-04-28 22:25 50.79153 -1.74912 3057 ft 183 kts 86°
2026-04-28 22:25 50.79275 -1.72786 3470 ft 204 kts 84°
2026-04-28 22:25 50.79427 -1.70453 3955 ft 222 kts 84°
2026-04-28 22:25 50.79590 -1.67954 4607 ft 232 kts 84°
2026-04-28 22:26 50.79761 -1.65386 5455 ft 237 kts 85°
2026-04-28 22:26 50.79936 -1.62761 6281 ft 242 kts 84°
2026-04-28 22:26 50.80115 -1.60085 7097 ft 248 kts 85°
2026-04-28 22:26 50.80299 -1.57332 7941 ft 252 kts 84°
2026-04-28 22:27 50.80485 -1.54548 8839 ft 256 kts 85°
2026-04-28 22:27 50.80675 -1.51720 9758 ft 260 kts 85°
2026-04-28 22:27 50.80867 -1.48853 10620 ft 264 kts 85°
2026-04-28 22:27 50.81063 -1.45921 11211 ft 279 kts 85°
2026-04-28 22:28 50.81271 -1.42772 11680 ft 297 kts 85°
2026-04-28 22:28 50.81493 -1.39422 12127 ft 315 kts 86°
2026-04-28 22:28 50.81727 -1.35873 12541 ft 333 kts 86°
2026-04-28 22:28 50.81969 -1.32129 12983 ft 350 kts 86°
2026-04-28 22:29 50.82220 -1.28261 13770 ft 355 kts 86°
2026-04-28 22:29 50.82474 -1.24357 14679 ft 356 kts 86°
2026-04-28 22:29 50.82726 -1.20444 15514 ft 358 kts 86°
2026-04-28 22:29 50.82978 -1.16493 16287 ft 363 kts 86°
2026-04-28 22:30 50.83232 -1.12495 17053 ft 367 kts 86°
2026-04-28 22:30 50.83489 -1.08454 17826 ft 370 kts 86°
2026-04-28 22:30 50.83746 -1.04372 18585 ft 374 kts 86°
2026-04-28 22:30 50.84005 -1.00249 19243 ft 378 kts 86°
2026-04-28 22:31 50.84264 -0.96094 19925 ft 380 kts 86°
2026-04-28 22:31 50.84522 -0.91917 20577 ft 383 kts 86°
2026-04-28 22:31 50.84784 -0.87671 21146 ft 389 kts 85°
2026-04-28 22:31 50.85082 -0.83379 21746 ft 395 kts 81°
2026-04-28 22:32 50.85972 -0.79236 22354 ft 403 kts 65°
2026-04-28 22:32 50.87614 -0.75597 23035 ft 412 kts 50°
2026-04-28 22:32 50.89929 -0.72759 23738 ft 424 kts 34°
2026-04-28 22:32 50.92626 -0.70793 24402 ft 427 kts 29°
2026-04-28 22:33 50.95365 -0.68924 24971 ft 430 kts 29°
2026-04-28 22:33 50.98088 -0.67050 25483 ft 431 kts 31°
2026-04-28 22:33 51.00533 -0.64414 25924 ft 421 kts 50°
2026-04-28 22:33 51.02261 -0.60661 26542 ft 413 kts 63°
2026-04-28 22:34 51.03689 -0.56684 27071 ft 415 kts 63°
2026-04-28 22:34 51.05132 -0.52696 27243 ft 417 kts 63°
2026-04-28 22:34 51.06576 -0.48747 27238 ft 416 kts 63°
2026-04-28 22:34 51.08062 -0.44709 27247 ft 416 kts 63°
2026-04-28 22:35 51.09527 -0.40743 27246 ft 416 kts 63°
2026-04-28 22:35 51.11000 -0.36763 27249 ft 416 kts 63°
2026-04-28 22:35 51.12471 -0.32790 27255 ft 416 kts 63°
2026-04-28 22:35 51.13950 -0.28795 27253 ft 416 kts 63°
2026-04-28 22:36 51.15422 -0.24815 27257 ft 416 kts 63°
2026-04-28 22:36 51.16892 -0.20840 27253 ft 416 kts 63°
2026-04-28 22:36 51.18362 -0.16858 27255 ft 416 kts 63°
2026-04-28 22:36 51.19827 -0.12884 27255 ft 416 kts 63°
2026-04-28 22:37 51.21298 -0.08890 27254 ft 416 kts 63°
2026-04-28 22:37 51.22763 -0.04905 27253 ft 416 kts 63°
2026-04-28 22:37 51.24234 -0.00897 27246 ft 416 kts 63°
2026-04-28 22:37 51.25676 0.03040 27323 ft 418 kts 63°
2026-04-28 22:38 51.27178 0.07147 27341 ft 420 kts 63°
2026-04-28 22:38 51.28635 0.11134 27358 ft 420 kts 63°
2026-04-28 22:38 51.30108 0.15169 27370 ft 419 kts 63°
2026-04-28 22:38 51.31576 0.19196 27379 ft 418 kts 63°
2026-04-28 22:39 51.33041 0.23222 27277 ft 418 kts 63°
2026-04-28 22:39 51.34502 0.27246 27215 ft 417 kts 63°
2026-04-28 22:39 51.35957 0.31258 26933 ft 414 kts 63°
2026-04-28 22:39 51.37396 0.35231 26675 ft 411 kts 63°
2026-04-28 22:40 51.38829 0.39195 26418 ft 410 kts 63°
2026-04-28 22:40 51.40260 0.43161 26162 ft 409 kts 63°
2026-04-28 22:40 51.41686 0.47120 25912 ft 408 kts 63°
2026-04-28 22:40 51.43108 0.51076 25653 ft 409 kts 63°
2026-04-28 22:41 51.44528 0.55032 25405 ft 409 kts 63°
2026-04-28 22:41 51.45951 0.58999 25165 ft 409 kts 63°
2026-04-28 22:41 51.47368 0.62956 24924 ft 408 kts 63°
2026-04-28 22:41 51.48763 0.66856 24695 ft 407 kts 63°
2026-04-28 22:42 51.50170 0.70798 24451 ft 407 kts 63°
2026-04-28 22:42 51.51577 0.74748 24223 ft 406 kts 63°
2026-04-28 22:42 51.52982 0.78694 23981 ft 405 kts 63°
2026-04-28 22:42 51.54378 0.82625 23717 ft 404 kts 63°
2026-04-28 22:43 51.55771 0.86551 23431 ft 403 kts 63°
2026-04-28 22:43 51.57159 0.90469 23146 ft 402 kts 63°
2026-04-28 22:43 51.58541 0.94377 22859 ft 401 kts 63°
2026-04-28 22:43 51.59924 0.98302 22726 ft 407 kts 63°
2026-04-28 22:44 51.61324 1.02285 23175 ft 409 kts 63°
2026-04-28 22:44 51.62726 1.06264 23261 ft 407 kts 63°
2026-04-28 22:44 51.64119 1.10226 23270 ft 406 kts 63°
2026-04-28 22:44 51.65512 1.14194 23274 ft 406 kts 63°
2026-04-28 22:45 51.66901 1.18157 23275 ft 406 kts 63°
2026-04-28 22:45 51.68291 1.22128 23277 ft 406 kts 63°
2026-04-28 22:45 51.69659 1.26044 23277 ft 406 kts 63°
2026-04-28 22:45 51.71019 1.30034 23274 ft 405 kts 66°
2026-04-28 22:46 51.71994 1.34282 23288 ft 403 kts 74°
2026-04-28 22:46 51.72770 1.38635 23286 ft 403 kts 75°
2026-04-28 22:46 51.73521 1.42999 23285 ft 403 kts 75°
2026-04-28 22:46 51.74281 1.47362 23278 ft 404 kts 75°
2026-04-28 22:47 51.75056 1.51734 23075 ft 404 kts 75°
2026-04-28 22:47 51.75842 1.56101 22790 ft 403 kts 75°
2026-04-28 22:47 51.76630 1.60443 22514 ft 402 kts 74°
2026-04-28 22:47 51.77420 1.64782 22243 ft 401 kts 74°
2026-04-28 22:48 51.78207 1.69095 21982 ft 400 kts 74°
2026-04-28 22:48 51.78994 1.73404 21714 ft 399 kts 74°
2026-04-28 22:48 51.79777 1.77703 21433 ft 398 kts 74°
2026-04-28 22:48 51.80551 1.81971 21180 ft 393 kts 74°
2026-04-28 22:49 51.81322 1.86207 20914 ft 391 kts 74°
2026-04-28 22:49 51.82087 1.90421 20662 ft 390 kts 74°
2026-04-28 22:49 51.82851 1.94634 20404 ft 389 kts 74°
2026-04-28 22:49 51.83610 1.98835 20164 ft 390 kts 74°
2026-04-28 22:50 51.84371 2.03053 19911 ft 390 kts 74°
2026-04-28 22:50 51.85129 2.07264 19656 ft 389 kts 74°
2026-04-28 22:50 51.85874 2.11413 19420 ft 388 kts 74°
2026-04-28 22:50 51.86636 2.15672 19286 ft 388 kts 74°
2026-04-28 22:51 51.87378 2.19821 19285 ft 389 kts 74°
2026-04-28 22:51 51.88138 2.24086 19278 ft 389 kts 74°
2026-04-28 22:51 51.88888 2.28304 19285 ft 389 kts 74°
2026-04-28 22:51 51.89625 2.32459 19287 ft 389 kts 74°
2026-04-28 22:52 51.90371 2.36674 19287 ft 389 kts 74°
2026-04-28 22:52 51.91116 2.40893 19286 ft 389 kts 74°
2026-04-28 22:52 51.91858 2.45108 19286 ft 389 kts 74°
2026-04-28 22:52 51.92599 2.49337 19283 ft 390 kts 74°
2026-04-28 22:53 51.93342 2.53574 19288 ft 391 kts 74°
2026-04-28 22:53 51.94084 2.57814 19285 ft 390 kts 74°
2026-04-28 22:53 51.94827 2.62066 19286 ft 391 kts 74°
2026-04-28 22:53 51.95565 2.66310 19287 ft 390 kts 74°
2026-04-28 22:54 51.96302 2.70552 19286 ft 390 kts 74°
2026-04-28 22:54 51.97037 2.74799 19299 ft 391 kts 74°
2026-04-28 22:54 51.97771 2.79044 19297 ft 390 kts 74°
2026-04-28 22:54 51.98504 2.83293 19258 ft 391 kts 74°
2026-04-28 22:55 51.99237 2.87553 18867 ft 389 kts 75°
2026-04-28 22:55 51.99961 2.91777 18407 ft 387 kts 75°
2026-04-28 22:55 52.00438 2.94561 18055 ft 385 kts 75°
2026-04-28 22:55 52.01375 3.00061 17386 ft 379 kts 74°
2026-04-28 22:56 52.02076 3.04172 16931 ft 375 kts 74°
2026-04-28 22:56 52.02769 3.08246 16496 ft 371 kts 74°
2026-04-28 22:56 52.03451 3.12264 16034 ft 367 kts 75°
2026-04-28 22:56 52.03900 3.14915 15703 ft 366 kts 75°
2026-04-28 22:57 52.04579 3.18938 15287 ft 362 kts 75°
2026-04-28 22:57 52.05241 3.22866 14826 ft 360 kts 75°
2026-04-28 22:57 52.05893 3.26741 14374 ft 358 kts 75°
2026-04-28 22:57 52.06545 3.30629 13945 ft 355 kts 75°
2026-04-28 22:58 52.07192 3.34494 13434 ft 353 kts 75°
2026-04-28 22:58 52.07833 3.38334 12992 ft 349 kts 75°
2026-04-28 22:58 52.08465 3.42130 12552 ft 346 kts 75°
2026-04-28 22:58 52.09093 3.45909 12096 ft 344 kts 75°
2026-04-28 22:59 52.09713 3.49649 11673 ft 340 kts 75°
2026-04-28 22:59 52.10329 3.53371 11225 ft 339 kts 75°
2026-04-28 22:59 52.10935 3.57036 10971 ft 330 kts 75°
2026-04-28 22:59 52.11516 3.60557 10832 ft 313 kts 75°
2026-04-28 23:00 52.12066 3.63896 10757 ft 297 kts 75°
2026-04-28 23:00 52.12586 3.67067 10661 ft 282 kts 75°
2026-04-28 23:00 52.13080 3.70081 10579 ft 268 kts 75°
2026-04-28 23:00 52.13551 3.72958 10493 ft 258 kts 75°
2026-04-28 23:01 52.14007 3.75746 10435 ft 251 kts 75°
2026-04-28 23:01 52.14454 3.78482 10332 ft 249 kts 75°
2026-04-28 23:01 52.14900 3.81223 9966 ft 251 kts 75°
2026-04-28 23:01 52.15348 3.83975 9644 ft 250 kts 75°
2026-04-28 23:02 52.15792 3.86714 9362 ft 248 kts 75°
2026-04-28 23:02 52.16232 3.89433 9045 ft 248 kts 75°
2026-04-28 23:02 52.16671 3.92146 8762 ft 246 kts 75°
2026-04-28 23:02 52.17106 3.94841 8497 ft 245 kts 75°
2026-04-28 23:03 52.17539 3.97531 8178 ft 245 kts 75°
2026-04-28 23:03 52.17965 4.00179 7886 ft 245 kts 75°
2026-04-28 23:03 52.18397 4.02865 7595 ft 244 kts 75°
2026-04-28 23:03 52.18828 4.05546 7298 ft 244 kts 75°
2026-04-28 23:04 52.19257 4.08219 7035 ft 243 kts 75°
2026-04-28 23:04 52.20096 4.13467 6508 ft 233 kts 75°
2026-04-28 23:04 52.20499 4.16001 6231 ft 228 kts 75°
2026-04-28 23:05 52.20894 4.18478 5992 ft 222 kts 75°
2026-04-28 23:05 52.21276 4.20877 5789 ft 216 kts 75°
2026-04-28 23:05 52.21652 4.23250 5558 ft 215 kts 75°
2026-04-28 23:05 52.22023 4.25606 5317 ft 214 kts 75°
2026-04-28 23:06 52.22396 4.27963 5101 ft 210 kts 75°
2026-04-28 23:06 52.22759 4.30249 4863 ft 206 kts 75°
2026-04-28 23:06 52.23112 4.32477 4671 ft 199 kts 76°
2026-04-28 23:06 52.23456 4.34665 4660 ft 198 kts 78°
2026-04-28 23:07 52.23496 4.36831 4604 ft 187 kts 98°
2026-04-28 23:07 52.23072 4.38802 4333 ft 185 kts 111°
2026-04-28 23:07 52.22535 4.40677 4108 ft 179 kts 112°
2026-04-28 23:07 52.22005 4.42484 3881 ft 173 kts 112°
2026-04-28 23:08 52.21494 4.44233 3649 ft 168 kts 112°
2026-04-28 23:08 52.21087 4.45979 3447 ft 161 kts 103°
2026-04-28 23:08 52.20905 4.47777 3246 ft 160 kts 94°
2026-04-28 23:08 52.20855 4.49586 3061 ft 159 kts 92°
2026-04-28 23:09 52.20883 4.51355 2945 ft 151 kts 82°
2026-04-28 23:09 52.21172 4.52952 2895 ft 145 kts 72°
2026-04-28 23:09 52.21596 4.54444 2730 ft 144 kts 68°
2026-04-28 23:09 52.22092 4.55855 2524 ft 142 kts 65°
2026-04-28 23:10 52.22609 4.57229 2339 ft 141 kts 65°
2026-04-28 23:10 52.23127 4.58588 2156 ft 141 kts 65°
2026-04-28 23:10 52.23646 4.59943 1960 ft 140 kts 65°
2026-04-28 23:10 52.24161 4.61292 1771 ft 140 kts 65°
2026-04-28 23:11 52.24677 4.62647 1575 ft 141 kts 64°
2026-04-28 23:11 52.25195 4.64002 1389 ft 141 kts 63°
2026-04-28 23:11 52.25699 4.65318 1168 ft 130 kts 63°
2026-04-28 23:11 52.26163 4.66531 992 ft 124 kts 62°
2026-04-28 23:12 52.26622 4.67740 831 ft 126 kts 61°
2026-04-28 23:12 52.27095 4.68978 706 ft 131 kts 60°
2026-04-28 23:12 52.27579 4.70244 547 ft 132 kts 59°
2026-04-28 23:12 52.28068 4.71519 368 ft 133 kts 59°
2026-04-28 23:13 52.28554 4.72788 141 ft 132 kts 59°
2026-04-28 23:13 52.29049 4.74073 28 ft 132 kts 58°
2026-04-28 23:13 52.29467 4.75167 7 ft 84 kts 58°
2026-04-28 23:13 52.29667 4.75693 7 ft 38 kts 58°
2026-04-28 23:14 52.29802 4.76048 6 ft 37 kts 57°
2026-04-28 23:14 52.29938 4.76394 5 ft 36 kts 57°
2026-04-28 23:14 52.30067 4.76733 6 ft 35 kts 58°
2026-04-28 23:14 52.30178 4.77023 5 ft 27 kts 58°
2026-04-28 23:15 52.30277 4.77285 4 ft 24 kts 58°
2026-04-28 23:15 52.30301 4.77490 7 ft 15 kts 125°
2026-04-28 23:15 52.30196 4.77515 7 ft 18 kts 204°
2026-04-28 23:15 52.30100 4.77355 7 ft 21 kts 234°
2026-04-28 23:16 52.30014 4.77137 7 ft 24 kts 238°
2026-04-28 23:16 52.29937 4.76940 7 ft 17 kts 234°
2026-04-28 23:16 52.29881 4.76837 7 ft 11 kts 227°
2026-04-28 23:16 52.29820 4.76714 7 ft 17 kts 237°
2026-04-28 23:17 52.29770 4.76589 7 ft 11 kts 236°
2026-04-28 23:17 52.29744 4.76533 7 ft 4 kts 211°
2026-04-28 23:17 52.29728 4.76531 7 ft 0 kts 174°
2026-04-28 23:17 52.29715 4.76536 7 ft 4 kts 164°
2026-04-28 23:18 52.29685 4.76557 7 ft 3 kts 153°
2026-04-28 23:18 52.29666 4.76572 7 ft 0 kts 152°